QPF
0.00 0.00 0.01 0.01 0.01 0.01 0.00 0.00 0.00 0.01 0.01 0.01 0.01 0.00 0.00 0.00 0.00 0.00 0.00 0.00 0.00 0.01 0.01 0.01 0.02 0.03 0.03 0.04 0.07 0.10 0.14 0.13 0.09 0.05 0.04 0.06 0.05 0.02 0.01 0.01 0.03 0.07 0.02
0.00 0.00 0.01 0.01 0.01 0.00 0.00 0.00 0.01 0.01 0.01 0.01 0.01 0.00 0.00 0.00 0.00 0.00 0.00 0.00 0.00 0.00 0.01 0.01 0.02 0.04 0.04 0.05 0.07 0.10 0.13 0.14 0.11 0.07 0.07 0.08 0.08 0.05 0.02 0.01 0.04 0.08 0.04
0.00 0.00 0.01 0.01 0.01 0.01 0.01 0.01 0.01 0.01 0.00 0.01 0.01 0.01 0.00 0.00 0.00 0.00 0.00 0.00 0.00 0.00 0.01 0.01 0.02 0.05 0.07 0.06 0.07 0.10 0.14 0.17 0.16 0.10 0.08 0.08 0.07 0.05 0.02 0.03 0.03 0.05 0.06
0.00 0.00 0.00 0.00 0.01 0.01 0.01 0.02 0.02 0.01 0.01 0.01 0.01 0.01 0.01 0.00 0.00 0.00 0.00 0.00 0.00 0.00 0.01 0.01 0.01 0.04 0.08 0.08 0.07 0.08 0.10 0.13 0.15 0.07 0.03 0.05 0.06 0.06 0.05 0.06 0.04 0.05 0.07
0.00 0.00 0.00 0.01 0.01 0.01 0.03 0.06 0.03 0.01 0.01 0.01 0.02 0.01 0.01 0.01 0.00 0.00 0.00 0.00 0.00 0.00 0.01 0.01 0.01 0.02 0.07 0.08 0.07 0.07 0.09 0.12 0.11 0.04 0.02 0.03 0.06 0.07 0.06 0.08 0.08 0.07 0.05
0.00 0.00 0.00 0.02 0.03 0.03 0.06 0.11 0.06 0.04 0.03 0.01 0.02 0.02 0.02 0.01 0.00 0.01 0.01 0.02 0.01 0.00 0.00 0.01 0.01 0.03 0.06 0.08 0.08 0.11 0.14 0.13 0.07 0.04 0.02 0.02 0.04 0.05 0.05 0.06 0.05 0.07 0.07
0.00 0.00 0.01 0.04 0.05 0.05 0.07 0.12 0.10 0.06 0.04 0.02 0.03 0.03 0.02 0.01 0.01 0.02 0.03 0.03 0.01 0.00 0.00 0.00 0.01 0.02 0.04 0.06 0.08 0.11 0.12 0.07 0.05 0.05 0.03 0.03 0.04 0.03 0.03 0.04 0.04 0.07 0.08
0.00 0.00 0.00 0.03 0.05 0.07 0.08 0.12 0.13 0.07 0.04 0.02 0.02 0.02 0.01 0.01 0.01 0.02 0.03 0.02 0.01 0.00 0.00 0.00 0.00 0.00 0.02 0.04 0.06 0.08 0.07 0.02 0.02 0.02 0.02 0.05 0.05 0.03 0.03 0.03 0.04 0.07 0.09
0.00 0.00 0.00 0.01 0.02 0.05 0.09 0.12 0.16 0.14 0.07 0.02 0.01 0.01 0.01 0.01 0.01 0.01 0.01 0.01 0.00 0.00 0.00 0.00 0.00 0.00 0.01 0.03 0.04 0.05 0.03 0.01 0.00 0.01 0.01 0.04 0.04 0.04 0.04 0.04 0.05 0.08 0.11
0.00 0.00 0.00 0.00 0.01 0.03 0.07 0.15 0.23 0.25 0.16 0.05 0.02 0.01 0.01 0.01 0.01 0.00 0.00 0.00 0.00 0.00 0.00 0.00 0.00 0.00 0.01 0.03 0.03 0.02 0.01 0.00 0.00 0.00 0.00 0.01 0.02 0.02 0.04 0.04 0.05 0.08 0.12
0.00 0.00 0.00 0.00 0.00 0.02 0.05 0.12 0.22 0.28 0.24 0.08 0.04 0.02 0.01 0.01 0.00 0.00 0.00 0.00 0.00 0.00 0.00 0.00 0.00 0.00 0.00 0.02 0.02 0.01 0.00 0.00 0.00 0.00 0.00 0.00 0.00 0.01 0.02 0.02 0.02 0.04 0.07
0.00 0.00 0.00 0.00 0.00 0.01 0.01 0.06 0.15 0.17 0.17 0.09 0.04 0.02 0.02 0.00 0.00 0.00 0.00 0.00 0.00 0.00 0.00 0.00 0.00 0.00 0.00 0.00 0.01 0.00 0.00 0.00 0.00 0.00 0.00 0.00 0.00 0.00 0.01 0.00 0.00 0.01 0.01
0.00 0.00 0.00 0.00 0.00 0.01 0.02 0.04 0.08 0.13 0.13 0.09 0.03 0.03 0.02 0.00 0.00 0.00 0.00 0.00 0.00 0.00 0.00 0.00 0.00 0.00 0.00 0.00 0.00 0.00 0.00 0.00 0.00 0.00 0.00 0.00 0.00 0.00 0.00 0.00 0.00 0.00 0.00
0.00 0.00 0.00 0.00 0.00 0.00 0.01 0.03 0.07 0.11 0.10 0.08 0.03 0.00 0.00 0.00 0.00 0.00 0.00 0.00 0.00 0.00 0.00 0.00 0.00 0.00 0.00 0.00 0.00 0.00 0.00 0.00 0.00 0.00 0.01 0.01 0.01 0.01 0.01 0.00 0.00 0.00 0.00
0.00 0.00 0.00 0.00 0.00 0.00 0.01 0.02 0.05 0.10 0.11 0.07 0.03 0.01 0.00 0.00 0.00 0.00 0.00 0.00 0.00 0.00 0.00 0.00 0.00 0.00 0.00 0.00 0.00 0.00 0.00 0.00 0.00 0.00 0.00 0.01 0.02 0.02 0.02 0.03 0.02 0.01 0.01
0.00 0.00 0.00 0.00 0.00 0.00 0.00 0.01 0.03 0.06 0.09 0.08 0.04 0.02 0.00 0.00 0.00 0.00 0.00 0.00 0.00 0.00 0.00 0.00 0.00 0.00 0.00 0.00 0.00 0.00 0.00 0.00 0.00 0.00 0.00 0.00 0.01 0.01 0.03 0.05 0.05 0.03 0.02
0.00 0.00 0.00 0.00 0.00 0.00 0.00 0.00 0.02 0.03 0.05 0.07 0.06 0.04 0.02 0.02 0.02 0.01 0.00 0.00 0.00 0.00 0.00 0.00 0.00 0.00 0.00 0.00 0.00 0.00 0.00 0.00 0.00 0.00 0.00 0.00 0.01 0.01 0.02 0.04 0.06 0.06 0.05
0.00 0.00 0.00 0.00 0.00 0.00 0.00 0.00 0.01 0.02 0.04 0.09 0.11 0.07 0.04 0.05 0.04 0.03 0.02 0.00 0.00 0.00 0.00 0.00 0.00 0.00 0.01 0.01 0.00 0.00 0.00 0.00 0.00 0.00 0.00 0.00 0.01 0.02 0.04 0.06 0.08 0.10 0.10
0.00 0.00 0.00 0.00 0.00 0.00 0.00 0.01 0.01 0.02 0.06 0.10 0.08 0.05 0.09 0.12 0.10 0.10 0.10 0.05 0.00 0.00 0.00 0.00 0.00 0.01 0.01 0.01 0.01 0.00 0.00 0.00 0.00 0.00 0.00 0.00 0.00 0.02 0.04 0.04 0.06 0.08 0.12
0.00 0.00 0.00 0.00 0.00 0.01 0.03 0.04 0.03 0.03 0.03 0.05 0.05 0.09 0.18 0.23 0.23 0.24 0.20 0.11 0.04 0.04 0.04 0.03 0.03 0.03 0.02 0.02 0.01 0.00 0.00 0.00 0.00 0.00 0.00 0.00 0.00 0.00 0.01 0.01 0.03 0.03 0.06
0.02 0.00 0.00 0.00 0.01 0.02 0.05 0.07 0.06 0.06 0.05 0.06 0.08 0.12 0.22 0.26 0.28 0.29 0.28 0.25 0.16 0.12 0.10 0.09 0.09 0.05 0.03 0.01 0.00 0.01 0.00 0.00 0.00 0.00 0.00 0.00 0.00 0.00 0.00 0.00 0.00 0.01 0.02
0.03 0.01 0.00 0.01 0.04 0.06 0.11 0.18 0.19 0.17 0.12 0.10 0.11 0.13 0.16 0.18 0.19 0.20 0.27 0.30 0.25 0.21 0.17 0.11 0.10 0.09 0.06 0.01 0.01 0.02 0.01 0.01 0.00 0.00 0.00 0.00 0.00 0.00 0.00 0.00 0.00 0.00 0.01
0.03 0.01 0.00 0.02 0.10 0.18 0.23 0.30 0.33 0.28 0.21 0.16 0.13 0.15 0.16 0.17 0.16 0.15 0.18 0.20 0.18 0.15 0.14 0.12 0.09 0.11 0.10 0.05 0.02 0.04 0.06 0.07 0.04 0.01 0.00 0.00 0.00 0.00 0.00 0.00 0.00 0.00 0.00
0.01 0.01 0.03 0.09 0.24 0.40 0.44 0.42 0.34 0.25 0.21 0.19 0.19 0.18 0.16 0.14 0.13 0.12 0.12 0.10 0.08 0.07 0.08 0.07 0.03 0.06 0.11 0.09 0.06 0.04 0.06 0.07 0.07 0.07 0.02 0.00 0.00 0.00 0.00 0.00 0.00 0.00 0.00
0.02 0.04 0.10 0.25 0.45 0.61 0.63 0.52 0.40 0.29 0.23 0.21 0.19 0.19 0.16 0.13 0.12 0.11 0.09 0.07 0.04 0.04 0.05 0.04 0.02 0.03 0.05 0.09 0.08 0.08 0.09 0.10 0.08 0.07 0.07 0.03 0.01 0.00 0.00 0.00 0.00 0.00 0.00
0.09 0.12 0.21 0.33 0.52 0.64 0.71 0.66 0.57 0.47 0.35 0.25 0.20 0.17 0.13 0.10 0.09 0.09 0.07 0.06 0.05 0.04 0.02 0.02 0.02 0.02 0.02 0.03 0.05 0.07 0.09 0.10 0.11 0.08 0.07 0.05 0.03 0.01 0.00 0.00 0.00 0.00 0.00
MSLP
1012.02 1012.01 1012.12 1012.35 1012.65 1012.97 1013.25 1013.47 1013.61 1013.70 1013.76 1013.84 1013.97 1014.15 1014.38 1014.62 1014.85 1015.04 1015.15 1015.18 1015.16 1015.09 1015.02 1014.97 1014.94 1014.94 1014.97 1015.02 1015.07 1015.12 1015.17 1015.22 1015.27 1015.33 1015.38 1015.42 1015.45 1015.44 1015.41 1015.34 1015.26 1015.18 1015.13
1011.87 1011.93 1012.11 1012.41 1012.76 1013.11 1013.42 1013.66 1013.80 1013.87 1013.92 1013.97 1014.08 1014.24 1014.47 1014.72 1014.96 1015.15 1015.27 1015.31 1015.29 1015.22 1015.14 1015.08 1015.03 1015.03 1015.05 1015.09 1015.13 1015.17 1015.21 1015.26 1015.32 1015.39 1015.46 1015.52 1015.56 1015.57 1015.54 1015.48 1015.40 1015.32 1015.26
1011.66 1011.80 1012.05 1012.41 1012.82 1013.22 1013.58 1013.84 1014.00 1014.08 1014.11 1014.15 1014.22 1014.36 1014.56 1014.79 1015.02 1015.21 1015.32 1015.37 1015.35 1015.29 1015.22 1015.16 1015.12 1015.12 1015.13 1015.16 1015.19 1015.22 1015.25 1015.29 1015.34 1015.41 1015.49 1015.56 1015.62 1015.65 1015.64 1015.59 1015.53 1015.46 1015.42
1011.44 1011.63 1011.94 1012.36 1012.83 1013.30 1013.71 1014.01 1014.21 1014.30 1014.34 1014.36 1014.42 1014.53 1014.69 1014.89 1015.08 1015.25 1015.36 1015.41 1015.41 1015.36 1015.31 1015.27 1015.25 1015.25 1015.27 1015.29 1015.30 1015.32 1015.33 1015.35 1015.39 1015.44 1015.52 1015.59 1015.66 1015.71 1015.72 1015.71 1015.67 1015.63 1015.61
1011.23 1011.47 1011.83 1012.29 1012.82 1013.34 1013.80 1014.16 1014.40 1014.52 1014.58 1014.60 1014.65 1014.73 1014.86 1015.03 1015.20 1015.35 1015.45 1015.51 1015.52 1015.50 1015.47 1015.45 1015.45 1015.46 1015.48 1015.49 1015.49 1015.48 1015.47 1015.46 1015.47 1015.51 1015.57 1015.65 1015.72 1015.78 1015.82 1015.84 1015.83 1015.83 1015.83
1011.10 1011.35 1011.73 1012.23 1012.79 1013.35 1013.85 1014.26 1014.54 1014.71 1014.79 1014.83 1014.88 1014.95 1015.07 1015.21 1015.37 1015.51 1015.61 1015.68 1015.71 1015.72 1015.71 1015.72 1015.73 1015.75 1015.77 1015.77 1015.74 1015.71 1015.66 1015.63 1015.61 1015.62 1015.66 1015.73 1015.80 1015.88 1015.94 1015.98 1016.01 1016.04 1016.08
1011.06 1011.31 1011.69 1012.18 1012.75 1013.32 1013.85 1014.28 1014.60 1014.80 1014.92 1014.99 1015.06 1015.15 1015.27 1015.41 1015.57 1015.72 1015.84 1015.92 1015.97 1016.01 1016.02 1016.04 1016.06 1016.08 1016.08 1016.07 1016.03 1015.97 1015.89 1015.83 1015.78 1015.77 1015.79 1015.84 1015.92 1016.00 1016.07 1016.14 1016.20 1016.25 1016.30
1011.11 1011.34 1011.70 1012.17 1012.71 1013.26 1013.78 1014.21 1014.55 1014.78 1014.93 1015.04 1015.14 1015.26 1015.41 1015.58 1015.76 1015.93 1016.08 1016.19 1016.26 1016.31 1016.34 1016.36 1016.38 1016.39 1016.38 1016.34 1016.28 1016.19 1016.10 1016.01 1015.95 1015.92 1015.93 1015.97 1016.04 1016.13 1016.21 1016.29 1016.36 1016.43 1016.49
1011.22 1011.43 1011.74 1012.16 1012.65 1013.16 1013.64 1014.05 1014.38 1014.62 1014.80 1014.95 1015.09 1015.25 1015.44 1015.65 1015.87 1016.08 1016.26 1016.40 1016.49 1016.56 1016.59 1016.61 1016.61 1016.60 1016.57 1016.51 1016.43 1016.34 1016.24 1016.15 1016.08 1016.05 1016.05 1016.10 1016.17 1016.25 1016.34 1016.42 1016.49 1016.56 1016.62
1011.33 1011.52 1011.80 1012.16 1012.58 1013.02 1013.44 1013.81 1014.12 1014.36 1014.55 1014.72 1014.90 1015.10 1015.34 1015.59 1015.86 1016.10 1016.32 1016.49 1016.60 1016.68 1016.72 1016.72 1016.71 1016.68 1016.62 1016.55 1016.47 1016.37 1016.28 1016.20 1016.15 1016.13 1016.15 1016.20 1016.27 1016.36 1016.45 1016.53 1016.59 1016.64 1016.68
1011.40 1011.57 1011.82 1012.13 1012.49 1012.86 1013.22 1013.53 1013.80 1014.03 1014.22 1014.41 1014.61 1014.85 1015.11 1015.41 1015.71 1015.99 1016.23 1016.43 1016.57 1016.65 1016.69 1016.69 1016.66 1016.61 1016.54 1016.47 1016.39 1016.30 1016.23 1016.17 1016.15 1016.15 1016.19 1016.26 1016.35 1016.45 1016.53 1016.61 1016.66 1016.69 1016.70
1011.36 1011.54 1011.78 1012.05 1012.36 1012.68 1012.98 1013.26 1013.49 1013.69 1013.88 1014.07 1014.28 1014.53 1014.82 1015.13 1015.45 1015.76 1016.02 1016.24 1016.39 1016.48 1016.53 1016.52 1016.49 1016.44 1016.37 1016.30 1016.23 1016.17 1016.12 1016.10 1016.11 1016.15 1016.21 1016.30 1016.41 1016.51 1016.60 1016.67 1016.71 1016.72 1016.71
1011.21 1011.41 1011.65 1011.92 1012.21 1012.50 1012.77 1013.02 1013.23 1013.41 1013.59 1013.77 1013.98 1014.22 1014.51 1014.82 1015.14 1015.46 1015.73 1015.96 1016.13 1016.24 1016.29 1016.30 1016.27 1016.23 1016.17 1016.12 1016.07 1016.04 1016.02 1016.03 1016.07 1016.13 1016.22 1016.33 1016.45 1016.57 1016.66 1016.72 1016.75 1016.75 1016.71
1010.93 1011.17 1011.43 1011.72 1012.03 1012.32 1012.59 1012.84 1013.04 1013.23 1013.39 1013.57 1013.76 1013.99 1014.25 1014.54 1014.85 1015.16 1015.43 1015.67 1015.85 1015.98 1016.05 1016.09 1016.09 1016.07 1016.03 1016.00 1015.98 1015.97 1015.97 1016.01 1016.06 1016.14 1016.24 1016.36 1016.48 1016.60 1016.70 1016.77 1016.79 1016.78 1016.74
1010.57 1010.83 1011.14 1011.47 1011.80 1012.13 1012.44 1012.71 1012.94 1013.14 1013.31 1013.47 1013.65 1013.85 1014.09 1014.35 1014.63 1014.91 1015.19 1015.43 1015.63 1015.78 1015.90 1015.96 1015.99 1016.01 1016.01 1016.00 1016.00 1016.01 1016.02 1016.06 1016.11 1016.18 1016.28 1016.39 1016.51 1016.62 1016.72 1016.78 1016.82 1016.81 1016.78
1010.16 1010.44 1010.77 1011.14 1011.53 1011.91 1012.28 1012.60 1012.88 1013.11 1013.30 1013.47 1013.64 1013.82 1014.02 1014.24 1014.49 1014.76 1015.03 1015.28 1015.50 1015.69 1015.84 1015.95 1016.02 1016.07 1016.10 1016.13 1016.14 1016.15 1016.17 1016.19 1016.22 1016.27 1016.34 1016.42 1016.52 1016.61 1016.70 1016.77 1016.81 1016.82 1016.80
1009.75 1010.01 1010.35 1010.76 1011.19 1011.64 1012.07 1012.46 1012.80 1013.08 1013.31 1013.50 1013.66 1013.83 1014.01 1014.21 1014.44 1014.69 1014.95 1015.21 1015.46 1015.68 1015.87 1016.02 1016.14 1016.23 1016.30 1016.34 1016.37 1016.38 1016.38 1016.38 1016.38 1016.39 1016.41 1016.45 1016.51 1016.58 1016.66 1016.72 1016.77 1016.80 1016.82
1009.37 1009.59 1009.91 1010.33 1010.79 1011.29 1011.78 1012.24 1012.65 1012.99 1013.27 1013.49 1013.67 1013.84 1014.01 1014.19 1014.41 1014.65 1014.91 1015.19 1015.46 1015.71 1015.94 1016.14 1016.30 1016.42 1016.52 1016.58 1016.61 1016.62 1016.61 1016.58 1016.54 1016.51 1016.48 1016.48 1016.50 1016.54 1016.59 1016.65 1016.71 1016.76 1016.80
1009.06 1009.20 1009.48 1009.87 1010.34 1010.87 1011.41 1011.93 1012.41 1012.81 1013.14 1013.41 1013.61 1013.79 1013.97 1014.15 1014.36 1014.61 1014.88 1015.16 1015.45 1015.73 1015.99 1016.22 1016.41 1016.57 1016.69 1016.77 1016.81 1016.82 1016.80 1016.75 1016.68 1016.62 1016.56 1016.52 1016.50 1016.51 1016.53 1016.58 1016.64 1016.71 1016.78
1008.84 1008.88 1009.08 1009.42 1009.88 1010.41 1010.98 1011.55 1012.08 1012.54 1012.92 1013.23 1013.48 1013.68 1013.87 1014.06 1014.28 1014.52 1014.79 1015.08 1015.38 1015.67 1015.95 1016.20 1016.42 1016.60 1016.74 1016.85 1016.91 1016.93 1016.91 1016.86 1016.79 1016.72 1016.64 1016.57 1016.53 1016.51 1016.52 1016.55 1016.60 1016.67 1016.76
1008.72 1008.66 1008.77 1009.04 1009.46 1009.98 1010.56 1011.16 1011.72 1012.23 1012.66 1013.01 1013.29 1013.52 1013.72 1013.92 1014.14 1014.38 1014.64 1014.93 1015.22 1015.52 1015.79 1016.05 1016.29 1016.49 1016.66 1016.78 1016.88 1016.92 1016.94 1016.91 1016.86 1016.79 1016.72 1016.66 1016.60 1016.58 1016.57 1016.59 1016.63 1016.69 1016.78
1008.73 1008.56 1008.58 1008.79 1009.17 1009.66 1010.23 1010.84 1011.42 1011.96 1012.42 1012.80 1013.11 1013.35 1013.57 1013.77 1013.97 1014.20 1014.45 1014.71 1014.98 1015.26 1015.53 1015.79 1016.03 1016.24 1016.43 1016.59 1016.72 1016.82 1016.88 1016.90 1016.90 1016.86 1016.82 1016.78 1016.73 1016.70 1016.69 1016.69 1016.72 1016.76 1016.84
1008.88 1008.63 1008.59 1008.74 1009.07 1009.54 1010.09 1010.70 1011.29 1011.84 1012.31 1012.70 1013.01 1013.26 1013.46 1013.64 1013.83 1014.02 1014.23 1014.46 1014.71 1014.96 1015.21 1015.45 1015.68 1015.91 1016.12 1016.31 1016.48 1016.63 1016.75 1016.84 1016.89 1016.92 1016.92 1016.91 1016.89 1016.86 1016.85 1016.84 1016.84 1016.87 1016.92
1009.18 1008.90 1008.82 1008.94 1009.23 1009.67 1010.21 1010.79 1011.38 1011.91 1012.38 1012.75 1013.05 1013.27 1013.44 1013.59 1013.73 1013.88 1014.05 1014.23 1014.43 1014.65 1014.86 1015.09 1015.32 1015.54 1015.77 1016.00 1016.22 1016.41 1016.59 1016.74 1016.85 1016.94 1016.99 1017.02 1017.03 1017.02 1016.99 1016.97 1016.96 1016.97 1016.99
1009.66 1009.37 1009.28 1009.39 1009.66 1010.08 1010.59 1011.15 1011.70 1012.21 1012.64 1012.98 1013.23 1013.41 1013.53 1013.62 1013.71 1013.80 1013.91 1014.05 1014.20 1014.38 1014.57 1014.77 1014.99 1015.22 1015.46 1015.71 1015.95 1016.19 1016.41 1016.61 1016.78 1016.91 1017.00 1017.06 1017.09 1017.09 1017.07 1017.03 1017.00 1016.98 1016.99
1010.29 1010.03 1009.96 1010.06 1010.33 1010.72 1011.20 1011.72 1012.22 1012.67 1013.04 1013.32 1013.51 1013.62 1013.68 1013.71 1013.74 1013.77 1013.83 1013.92 1014.03 1014.17 1014.34 1014.53 1014.73 1014.96 1015.21 1015.46 1015.72 1015.98 1016.22 1016.45 1016.64 1016.79 1016.91 1016.98 1017.02 1017.03 1017.00 1016.97 1016.92 1016.89 1016.89
Thickness
5813 5811 5802 5800 5797 5795 5793 5791 5788 5785 5782 5780 5777 5775 5773 5771 5770 5768 5767 5766 5766 5765 5765 5765 5765 5765 5766 5766 5767 5767 5767 5768 5769 5771 5772 5774 5775 5776 5776 5777 5779 5782 5781
5818 5812 5803 5800 5797 5795 5793 5791 5788 5785 5782 5780 5777 5775 5773 5771 5769 5767 5766 5764 5764 5763 5763 5763 5763 5763 5764 5765 5766 5766 5766 5766 5766 5768 5770 5771 5772 5773 5774 5775 5777 5779 5779
5818 5812 5804 5800 5797 5795 5793 5791 5789 5786 5783 5780 5778 5775 5773 5771 5768 5766 5764 5763 5762 5762 5761 5761 5761 5761 5762 5763 5763 5764 5764 5764 5764 5765 5768 5771 5771 5770 5771 5772 5773 5774 5775
5817 5811 5806 5800 5797 5795 5793 5791 5789 5787 5784 5781 5778 5776 5773 5770 5768 5766 5764 5762 5761 5760 5760 5759 5759 5759 5759 5760 5761 5761 5762 5761 5761 5764 5768 5770 5770 5768 5768 5769 5769 5770 5770
5815 5811 5806 5800 5797 5795 5793 5791 5789 5787 5784 5782 5779 5776 5773 5770 5768 5766 5764 5762 5760 5759 5758 5758 5757 5757 5758 5758 5759 5759 5760 5760 5760 5763 5766 5767 5767 5766 5765 5766 5766 5767 5767
5813 5810 5805 5800 5797 5795 5793 5791 5789 5787 5785 5782 5779 5776 5773 5770 5768 5765 5763 5761 5760 5758 5756 5756 5756 5756 5756 5757 5757 5758 5758 5759 5760 5763 5764 5766 5766 5763 5763 5764 5764 5764 5764
5813 5810 5805 5800 5797 5795 5793 5791 5789 5788 5785 5783 5780 5777 5774 5771 5768 5766 5763 5761 5759 5757 5755 5754 5754 5754 5755 5755 5756 5756 5757 5758 5761 5761 5763 5764 5763 5761 5760 5761 5761 5762 5763
5814 5810 5806 5799 5797 5794 5793 5791 5789 5787 5785 5783 5780 5778 5775 5772 5769 5766 5764 5761 5758 5756 5754 5753 5753 5753 5753 5753 5753 5754 5755 5757 5760 5762 5762 5762 5759 5759 5759 5759 5759 5760 5761
5814 5810 5807 5802 5797 5794 5792 5790 5788 5787 5785 5783 5780 5778 5775 5772 5769 5766 5763 5761 5758 5755 5753 5752 5752 5752 5752 5752 5752 5752 5753 5755 5759 5760 5761 5760 5758 5758 5757 5757 5757 5758 5759
5812 5810 5808 5805 5802 5798 5794 5790 5787 5786 5784 5782 5780 5777 5774 5772 5769 5766 5764 5760 5758 5755 5753 5752 5751 5751 5751 5751 5751 5751 5752 5754 5758 5759 5760 5758 5756 5756 5757 5756 5756 5756 5757
5809 5810 5809 5806 5803 5799 5796 5791 5787 5784 5783 5781 5779 5776 5774 5774 5772 5768 5766 5760 5757 5755 5753 5751 5750 5750 5750 5750 5750 5750 5752 5758 5757 5759 5758 5754 5754 5755 5755 5755 5755 5755 5755
5805 5806 5808 5806 5802 5799 5795 5792 5788 5786 5783 5782 5781 5778 5777 5778 5775 5773 5763 5760 5757 5755 5752 5751 5750 5750 5752 5754 5751 5751 5756 5755 5757 5758 5757 5752 5752 5753 5754 5754 5755 5755 5755
5808 5805 5805 5804 5801 5799 5795 5792 5789 5786 5783 5783 5782 5779 5778 5777 5773 5771 5766 5761 5758 5756 5757 5751 5752 5756 5756 5754 5754 5754 5752 5754 5756 5756 5754 5750 5750 5752 5753 5754 5754 5754 5754
5809 5806 5805 5803 5801 5797 5794 5791 5788 5785 5783 5783 5782 5780 5778 5776 5774 5772 5767 5766 5761 5759 5757 5758 5757 5756 5755 5755 5754 5753 5752 5752 5751 5751 5750 5747 5748 5749 5751 5752 5753 5753 5753
5807 5805 5805 5802 5801 5797 5793 5789 5787 5783 5782 5783 5780 5779 5776 5774 5772 5770 5767 5762 5762 5760 5756 5755 5757 5756 5755 5754 5752 5751 5750 5748 5748 5747 5747 5744 5745 5746 5747 5749 5750 5750 5751
5807 5806 5805 5801 5799 5796 5792 5788 5786 5782 5778 5779 5777 5776 5775 5772 5770 5766 5766 5760 5760 5758 5756 5755 5755 5752 5752 5750 5748 5746 5745 5745 5745 5744 5744 5743 5741 5742 5743 5744 5745 5746 5747
5809 5807 5804 5800 5797 5794 5791 5788 5784 5779 5777 5775 5774 5773 5771 5769 5766 5763 5763 5760 5757 5754 5753 5752 5751 5750 5747 5745 5744 5743 5742 5740 5740 5741 5740 5740 5740 5738 5738 5739 5740 5741 5742
5809 5806 5804 5797 5794 5792 5788 5785 5782 5778 5775 5771 5769 5767 5767 5765 5763 5761 5758 5757 5754 5752 5750 5748 5747 5745 5744 5742 5741 5740 5739 5736 5737 5736 5736 5736 5735 5735 5733 5732 5733 5734 5735
5806 5803 5800 5796 5792 5788 5784 5781 5779 5776 5771 5767 5764 5763 5762 5761 5759 5756 5754 5752 5750 5748 5746 5745 5743 5742 5740 5738 5738 5735 5736 5734 5733 5730 5733 5732 5730 5728 5728 5726 5726 5727 5728
5800 5801 5798 5793 5789 5786 5780 5776 5773 5770 5768 5764 5761 5759 5757 5755 5753 5751 5747 5747 5746 5743 5741 5740 5738 5736 5735 5733 5734 5732 5731 5731 5729 5727 5726 5724 5724 5723 5723 5722 5722 5720 5720
5792 5795 5795 5790 5787 5782 5775 5769 5764 5761 5761 5759 5757 5754 5751 5749 5748 5746 5744 5743 5741 5739 5737 5736 5733 5731 5728 5730 5727 5725 5727 5726 5728 5723 5721 5721 5720 5717 5716 5716 5717 5717 5716
5786 5790 5792 5789 5785 5780 5774 5769 5764 5760 5756 5754 5751 5748 5745 5744 5743 5743 5742 5739 5737 5735 5733 5733 5730 5726 5725 5725 5722 5717 5715 5718 5716 5720 5717 5714 5715 5712 5711 5710 5712 5711 5713
5779 5782 5787 5788 5782 5775 5769 5764 5759 5753 5748 5745 5743 5741 5740 5738 5738 5737 5737 5736 5734 5733 5730 5729 5728 5723 5718 5720 5722 5715 5707 5704 5711 5714 5713 5710 5708 5707 5707 5707 5707 5707 5706
5768 5775 5779 5780 5775 5768 5761 5755 5750 5743 5737 5737 5737 5737 5735 5733 5732 5731 5731 5731 5731 5730 5728 5727 5726 5723 5717 5713 5714 5714 5713 5710 5701 5701 5704 5706 5704 5701 5702 5700 5699 5701 5700
5752 5760 5765 5766 5763 5757 5751 5747 5741 5732 5727 5726 5727 5728 5728 5726 5726 5726 5725 5725 5726 5725 5724 5723 5722 5719 5716 5711 5708 5707 5705 5703 5702 5696 5692 5694 5695 5695 5696 5695 5695 5696 5696
5736 5742 5746 5747 5745 5743 5739 5738 5734 5724 5716 5712 5712 5715 5716 5717 5719 5720 5719 5719 5719 5719 5719 5718 5716 5714 5712 5709 5705 5703 5699 5697 5695 5692 5687 5685 5686 5690 5690 5690 5690 5691 5691